Wind_Speed
7 8 9 10 9 7 6 6 6 6 6 7 9 9 8 7 9 11 12 12 11 10 12 13 13 12 10 9 9 10 12 14 16 16 16 14 13 13 14 15 17 17 17 15 14 12 11 11 12 12 12 11 9 9 9 9 9 8 8 7 7 7 8 8 8 7 7 7 7 7 6 7 6 6 6 6 6 5 4 3 1 1 2 2 2
7 8 9 10 9 8 7 6 6 7 8 8 9 8 7 7 7 8 11 13 13 12 12 13 14 13 12 10 10 11 13 14 16 17 18 16 14 13 14 15 17 18 18 17 16 13 12 11 11 12 12 11 10 9 9 9 9 8 7 7 7 7 7 8 8 8 8 7 7 7 7 7 7 6 6 6 6 5 3 2 2 3 3 2 1
7 8 8 9 9 8 7 7 7 6 8 8 8 7 6 6 7 7 8 11 13 13 13 13 14 15 15 14 12 13 14 14 15 17 18 18 16 14 14 15 17 18 18 18 16 14 13 12 12 12 12 12 11 9 9 9 10 9 7 7 7 7 7 7 7 8 8 8 7 8 8 8 7 7 6 6 5 4 3 3 4 4 3 2 1
8 7 7 7 7 7 7 7 6 6 6 7 7 7 6 5 5 6 7 9 11 12 13 12 13 16 18 17 15 15 16 15 14 16 18 18 17 16 15 15 16 18 18 17 16 15 14 13 12 12 12 12 11 10 10 10 10 9 8 7 7 7 7 7 7 8 8 8 8 8 8 8 8 7 6 6 5 4 3 4 5 4 3 2 2
8 7 5 5 5 5 5 6 6 6 6 7 7 7 6 6 5 6 7 7 9 10 11 13 14 14 16 16 15 16 17 17 15 15 17 18 18 17 17 16 16 16 17 17 16 15 14 13 13 13 13 13 12 11 11 10 10 10 9 8 8 7 7 7 8 8 9 9 9 9 9 9 8 7 6 5 4 4 5 6 6 4 3 2 2
7 6 5 5 4 4 5 6 7 7 7 7 8 8 8 7 7 7 8 8 8 9 10 13 14 14 15 15 14 16 17 17 16 14 16 19 19 19 18 17 16 16 17 17 16 15 14 13 13 14 14 14 13 12 11 11 11 10 9 9 9 8 8 8 9 9 10 10 10 10 10 9 8 7 6 5 5 5 6 7 6 5 3 2 2
8 7 6 5 5 5 6 7 9 9 9 9 10 10 11 11 10 10 11 11 10 9 10 12 13 14 15 14 15 17 16 16 16 15 16 18 19 20 20 18 16 16 17 16 16 15 15 14 14 14 15 15 14 13 12 12 12 11 10 10 10 10 9 9 10 10 11 11 11 10 10 9 8 7 6 6 6 7 8 7 6 5 3 2 2
7 6 6 6 7 7 8 9 10 10 11 12 13 13 14 14 14 14 14 14 13 12 11 12 13 13 14 15 16 18 18 19 17 16 16 17 19 20 20 19 17 17 17 16 15 15 16 15 15 15 16 16 15 14 13 12 12 12 11 11 11 11 10 10 11 11 11 12 11 11 10 9 8 7 7 7 7 8 8 8 6 5 4 3 1
6 6 7 8 8 9 10 11 11 11 11 12 13 14 15 16 16 15 15 15 15 15 14 13 13 13 13 14 15 16 19 22 22 19 18 18 18 19 21 20 17 16 17 16 16 16 16 16 15 16 16 17 16 15 13 13 13 12 11 11 11 11 11 11 12 12 12 12 12 11 10 10 9 8 7 8 9 9 9 8 7 5 4 3 2
7 7 7 8 9 10 11 12 13 13 13 13 13 13 14 15 15 15 16 16 16 17 17 17 16 15 14 14 15 16 18 20 22 23 21 20 20 19 20 21 19 17 17 17 16 16 16 15 15 15 17 17 17 15 14 14 13 13 12 11 11 11 11 12 12 12 13 13 12 11 10 10 9 8 8 9 10 10 9 8 7 6 5 4 3
9 8 8 9 9 10 11 13 14 15 16 16 15 15 15 15 16 17 17 18 18 18 19 20 20 19 17 16 16 17 18 18 21 22 21 21 21 20 20 22 22 21 20 18 17 17 16 15 15 16 17 18 17 16 15 15 14 14 13 12 12 11 12 12 12 13 13 13 13 12 11 10 10 9 9 10 10 11 10 9 8 7 5 4 4
11 11 10 10 11 12 13 14 16 17 18 18 18 17 17 18 18 18 18 20 20 21 20 21 21 22 21 20 18 17 17 17 19 21 22 22 22 22 22 24 24 24 24 21 19 18 17 16 16 16 17 17 17 17 16 15 15 14 13 12 12 12 13 13 13 13 13 13 13 13 12 11 10 10 10 10 11 11 10 9 9 7 6 5 5
13 13 13 13 13 14 15 17 18 20 19 17 17 18 18 19 20 19 19 19 20 21 21 21 22 23 22 22 20 19 19 18 18 20 20 20 21 22 23 25 26 26 26 24 21 20 19 17 16 17 17 17 18 18 17 16 16 15 14 13 13 13 13 14 13 13 13 14 14 13 12 11 10 10 10 11 12 12 11 10 9 8 7 6 5
15 15 16 16 16 17 18 19 21 21 18 17 16 16 17 18 18 19 19 18 20 21 21 20 21 23 24 23 22 22 21 19 19 20 20 20 21 22 24 25 27 27 27 25 22 20 20 18 17 17 18 18 18 18 18 17 18 16 15 14 13 14 14 14 14 14 14 14 14 13 12 12 11 11 11 11 12 12 12 11 10 10 8 7 6
16 17 17 18 18 20 21 21 22 20 17 18 19 19 17 16 16 18 19 20 22 22 21 21 22 23 25 25 24 24 22 21 22 23 23 23 22 24 25 25 27 27 27 25 22 21 20 19 19 19 19 19 19 19 19 19 19 18 16 15 15 15 15 15 15 15 15 14 14 14 13 12 11 11 11 12 13 13 13 12 11 10 10 8 8
17 18 18 19 20 21 22 22 22 20 19 20 21 22 20 19 19 19 20 21 22 23 23 24 24 24 26 26 26 24 23 24 26 26 25 24 23 24 24 25 28 29 27 26 24 22 21 20 20 20 20 20 20 20 20 20 21 20 17 16 16 16 16 16 16 16 15 15 15 14 14 13 12 12 12 12 13 14 14 13 12 11 11 10 9
19 18 18 20 21 23 23 23 22 22 22 22 22 23 23 23 22 21 22 22 22 24 25 26 26 26 27 28 28 27 25 27 28 27 26 25 23 23 23 24 29 30 28 26 25 23 22 22 22 21 21 21 21 21 21 22 22 21 18 17 17 17 17 17 17 17 16 16 15 14 14 14 13 13 13 13 14 15 15 14 13 12 12 11 11
20 19 19 20 22 23 23 22 22 22 23 24 24 24 24 25 24 23 23 23 23 24 26 28 27 27 27 28 30 30 28 29 29 28 28 27 24 23 23 25 28 30 29 26 25 24 22 23 23 22 22 22 22 21 21 22 22 21 19 18 17 17 17 18 18 17 17 16 15 15 15 14 14 13 14 14 14 15 15 15 14 13 13 13 12
21 20 21 22 23 23 24 23 22 23 24 24 24 24 25 25 25 24 24 25 25 24 26 28 27 26 28 28 29 31 30 30 29 29 28 28 26 22 22 25 28 29 29 27 25 24 24 25 25 24 23 23 23 22 22 23 22 21 20 18 17 17 18 19 18 18 17 17 17 16 15 15 15 15 15 15 15 16 16 16 15 14 14 14 14
24 23 23 25 25 25 26 25 24 25 25 24 25 24 25 25 25 25 24 25 27 26 26 27 27 28 30 30 29 31 32 30 30 30 28 28 27 24 22 24 27 28 27 27 27 26 26 25 25 25 25 24 24 23 23 23 22 22 20 18 17 18 18 19 18 18 18 18 18 17 16 16 16 16 16 16 16 17 17 17 16 14 15 15 15
26 26 26 27 27 27 27 27 27 27 26 26 26 25 25 25 26 25 25 25 27 28 27 27 28 30 32 32 31 30 31 31 31 30 29 29 28 26 25 24 26 28 29 30 28 27 26 25 25 25 25 25 25 24 24 24 23 23 21 18 18 18 18 19 19 19 19 19 18 18 17 17 16 16 16 16 16 17 18 18 17 15 15 15 16
29 29 29 29 29 28 28 28 28 28 27 27 25 25 25 25 25 25 26 26 27 28 27 27 29 31 32 33 32 32 31 32 32 31 31 30 28 27 27 25 25 28 32 32 29 27 26 25 25 25 25 26 26 26 26 25 25 24 22 19 18 18 19 19 19 19 19 20 19 19 18 18 17 17 17 17 17 18 18 19 18 16 15 16 17
30 30 30 30 30 30 29 29 29 28 27 26 25 24 24 25 25 25 26 27 28 28 28 28 29 31 32 32 33 34 34 32 32 33 32 30 28 28 28 27 27 28 31 32 29 27 25 25 26 25 26 28 28 28 27 26 26 24 22 20 19 19 19 19 19 20 20 20 20 20 19 19 18 18 18 17 17 18 19 20 19 18 16 17 18
31 31 31 31 31 31 30 29 29 28 26 25 25 24 25 25 26 26 26 27 29 30 30 30 30 31 33 32 33 35 34 34 33 33 33 31 30 29 29 30 29 29 29 30 29 27 25 26 27 26 27 29 30 29 28 27 26 24 22 21 19 20 20 20 20 21 21 21 21 21 20 20 19 19 19 18 18 19 20 21 21 20 18 18 19
32 32 32 33 32 32 31 30 29 27 25 25 25 25 26 26 26 26 27 28 29 31 31 33 33 33 34 33 33 34 34 34 34 32 32 32 31 30 30 31 31 29 29 30 30 30 29 27 26 28 29 30 30 29 29 28 27 25 23 21 21 21 21 22 21 21 21 21 21 21 21 20 20 20 20 19 19 20 21 22 22 21 20 19 20
33 34 34 34 34 33 33 32 30 27 26 26 26 27 27 27 27 27 28 29 30 31 32 34 36 35 35 35 33 33 34 34 33 32 32 32 31 30 31 31 31 31 31 32 32 32 31 29 28 30 31 31 30 29 30 29 27 26 24 22 22 22 22 22 22 22 21 21 21 21 21 21 21 21 21 21 21 21 22 23 23 23 22 21 20
35 35 35 35 35 35 34 32 30 28 27 27 28 29 29 29 29 29 30 31 31 32 32 35 37 37 37 36 34 33 33 33 33 31 32 32 31 31 32 32 31 31 31 33 34 33 33 31 30 31 31 31 31 29 30 30 27 26 24 23 23 23 22 22 21 21 21 21 21 21 21 22 22 22 22 22 22 22 23 24 24 24 23 22 21
36 37 37 37 36 35 35 33 30 28 28 28 29 30 30 30 31 30 31 32 33 34 34 35 37 38 37 36 34 32 32 33 32 32 32 33 32 32 32 32 31 30 31 34 34 32 32 32 31 32 32 32 31 29 30 30 28 25 24 24 24 23 22 22 21 21 21 21 21 21 22 22 23 23 23 23 23 23 24 25 25 25 25 23 22
38 38 38 38 37 36 35 34 32 30 29 29 30 30 31 31 32 32 32 33 34 35 36 36 37 37 36 36 34 32 32 33 32 32 33 33 32 31 30 30 30 29 28 30 31 31 31 32 32 32 33 31 30 29 30 31 28 26 26 26 25 24 23 22 21 21 21 21 22 22 23 23 24 24 24 24 24 24 25 26 26 26 26 25 23
39 39 39 39 38 37 37 35 33 32 30 30 31 31 32 32 33 33 33 34 35 36 37 37 37 37 36 35 33 31 33 34 33 32 32 32 32 31 30 29 29 27 24 23 24 26 28 30 31 31 30 29 28 29 30 30 28 26 26 26 25 24 23 22 22 22 23 22 22 23 23 24 24 24 24 24 25 25 26 26 27 27 27 26 24
40 41 41 40 40 39 38 37 35 33 32 32 31 31 32 33 33 34 35 35 35 36 37 37 37 37 35 33 32 32 33 33 33 32 32 31 32 31 29 29 28 26 24 22 20 21 23 25 25 26 26 25 26 28 29 29 27 25 26 27 26 24 23 22 23 24 24 23 23 23 23 24 24 24 25 25 26 26 27 27 28 28 28 27 26
41 42 42 42 41 40 40 38 37 35 34 33 33 32 32 33 34 34 35 36 36 36 36 36 37 37 35 32 31 33 33 33 32 33 32 32 33 32 30 29 28 27 27 24 22 22 23 23 23 24 24 24 24 26 27 27 26 24 25 28 27 25 23 24 24 25 25 24 24 24 24 24 24 24 25 26 27 27 27 28 28 28 28 28 27
42 43 43 43 42 42 41 40 38 37 36 34 34 34 33 34 34 34 35 36 36 36 36 36 35 36 34 31 30 31 32 32 31 32 33 34 34 33 32 31 30 29 29 27 26 25 24 24 25 25 25 24 25 26 27 27 25 23 25 28 28 26 25 25 25 25 25 25 24 24 24 24 24 24 25 26 27 28 28 28 29 29 29 29 28
43 44 44 44 43 43 42 41 40 38 37 36 35 35 34 35 35 35 35 35 36 36 35 35 34 34 33 31 29 30 31 31 31 32 34 34 34 34 33 32 31 31 31 30 29 28 26 27 27 27 26 25 25 27 27 27 26 24 25 28 30 29 27 26 25 25 25 25 24 24 24 24 24 24 25 26 27 28 28 28 29 29 29 30 29
44 44 44 44 44 43 43 42 41 40 39 38 37 36 36 36 35 35 35 35 35 35 34 34 34 34 33 31 30 30 30 31 31 32 33 34 34 34 33 32 32 33 33 32 30 29 29 29 29 28 27 26 26 27 29 28 27 25 25 28 30 30 28 26 25 25 25 24 24 24 24 24 24 24 25 26 27 27 28 28 29 29 30 30 30
44 44 44 44 44 44 44 43 42 41 40 40 40 40 39 38 37 36 35 35 35 35 34 34 34 33 33 31 29 29 30 31 31 31 31 33 33 33 32 32 33 34 34 32 31 30 31 31 29 27 27 27 27 28 29 28 26 25 26 28 29 29 28 26 25 25 25 24 24 24 24 25 24 24 25 26 26 27 28 28 29 29 30 31 31
43 44 44 44 44 44 44 44 43 43 42 42 42 42 41 40 38 37 36 34 34 35 34 34 34 33 33 31 29 29 29 31 31 31 30 32 33 33 32 33 34 35 34 32 31 32 32 31 29 28 28 28 28 28 28 28 26 26 27 27 28 29 29 27 25 25 25 24 24 24 25 25 25 25 25 26 27 27 28 28 29 29 30 31 32
43 44 44 44 45 45 44 44 44 44 44 43 42 42 41 40 39 37 36 34 34 34 34 34 34 33 33 32 29 29 29 30 31 31 31 32 34 33 33 34 36 36 34 33 33 33 33 31 30 30 29 29 28 28 28 28 27 27 27 27 28 29 29 28 26 26 26 25 24 25 26 26 26 26 26 27 27 27 28 28 29 29 30 31 32
42 43 44 44 44 45 45 45 44 44 44 43 42 41 40 39 39 37 36 35 34 33 33 34 34 33 32 31 30 29 28 29 30 31 31 33 34 34 35 37 37 37 35 34 34 34 33 32 32 30 29 29 29 28 30 31 30 29 28 28 29 29 29 29 29 29 27 26 25 26 26 27 26 26 26 26 26 27 27 28 29 29 30 31 32
42 43 43 44 44 45 45 45 44 44 44 43 42 42 41 40 40 38 37 36 35 34 33 33 34 33 31 31 30 29 29 29 29 30 31 33 34 34 37 38 38 36 36 36 36 35 33 33 33 31 31 32 31 30 32 32 30 27 26 27 28 30 31 31 31 31 29 27 26 26 26 26 26 26 26 26 26 27 27 28 29 29 30 31 31
43 43 44 44 44 45 45 45 45 45 45 44 43 43 42 41 42 41 39 38 36 36 34 33 33 33 32 31 31 30 29 29 30 31 32 33 34 34 36 37 37 37 38 37 36 35 34 34 33 32 32 32 32 31 32 31 29 27 28 28 29 32 34 34 33 32 31 28 26 26 26 26 26 26 26 26 27 28 28 29 29 30 30 31 32
44 44 45 45 45 45 46 46 47 47 46 46 45 45 44 43 43 43 42 40 38 37 36 34 33 33 32 31 31 31 30 29 29 30 32 33 34 36 36 36 37 37 38 37 35 35 36 35 34 33 33 32 32 31 30 31 31 32 31 31 30 32 35 35 34 33 31 28 26 26 27 27 27 27 27 27 28 28 29 30 31 31 32 33 33
46 46 47 47 47 47 47 48 48 48 48 48 48 47 47 46 45 45 44 42 40 38 37 35 33 34 34 32 31 32 32 31 30 30 32 34 35 36 37 36 36 37 37 37 36 36 37 36 34 34 33 32 32 31 31 33 34 34 32 32 31 32 35 35 34 33 32 30 29 29 29 29 28 28 28 28 29 29 30 31 32 33 34 34 34
47 47 48 49 49 49 50 50 50 50 51 51 50 50 50 49 48 47 46 45 42 40 38 36 34 34 35 34 32 32 33 33 33 32 33 35 36 37 37 36 36 37 37 38 37 36 36 36 36 35 34 33 33 33 33 34 35 34 34 33 32 33 35 36 34 34 34 33 32 32 32 30 29 28 29 29 29 29 30 32 33 34 34 34 34
48 48 49 49 50 51 52 52 53 53 53 53 53 53 52 52 50 49 48 47 45 43 41 39 36 34 35 35 33 32 33 33 34 34 33 35 37 38 38 37 36 36 37 37 36 36 36 37 37 36 34 34 35 34 34 34 36 36 34 33 33 35 36 35 34 36 36 34 33 34 33 30 29 29 29 30 30 30 32 33 33 33 34 34 35
51 51 52 52 52 53 54 54 55 55 55 55 55 55 55 54 53 52 50 49 47 45 43 41 38 35 35 36 35 33 33 33 34 35 35 35 36 37 37 37 37 36 37 37 37 37 37 38 37 36 35 35 35 34 34 35 36 35 34 33 34 35 35 35 35 37 37 34 34 35 33 30 29 29 30 31 31 32 33 34 34 35 35 35 36
53 54 55 56 56 56 57 58 58 58 58 58 58 57 57 56 56 55 53 51 50 47 45 42 40 37 35 36 37 35 34 33 33 34 35 35 36 36 36 35 36 37 37 38 37 37 38 38 37 37 36 36 34 34 34 34 33 33 33 33 34 35 37 37 37 38 37 35 34 33 32 30 30 30 31 31 32 33 35 36 36 36 36 36 37
54 55 56 57 58 59 59 60 60 61 61 61 61 61 60 59 58 58 57 55 52 50 47 44 42 39 36 36 38 37 35 34 34 34 35 36 36 37 37 36 36 36 37 38 37 37 38 37 37 37 37 36 35 34 34 33 32 33 34 34 35 38 39 38 38 39 39 37 34 32 31 31 31 31 31 32 33 34 35 36 36 36 36 37 38
52 53 54 55 56 57 58 59 60 61 62 62 63 63 63 62 61 60 59 58 56 53 50 47 44 42 39 37 38 39 37 35 35 34 35 36 37 38 39 39 38 36 36 37 38 38 38 37 37 38 38 37 36 35 34 33 33 34 35 36 38 39 38 36 36 38 39 38 35 33 32 32 32 32 32 33 34 35 35 36 36 36 37 38 38
50 52 53 53 54 55 56 57 58 60 60 61 61 62 63 63 63 62 61 60 59 56 53 49 46 44 42 39 39 40 39 37 36 36 35 36 37 38 38 40 40 38 37 37 38 38 38 38 38 38 37 37 37 35 33 33 34 36 37 38 38 39 39 38 38 38 40 39 37 34 33 33 33 33 34 34 35 36 36 37 37 37 38 38 38
49 50 51 52 53 54 55 55 56 58 59 60 60 61 62 62 63 63 62 61 60 58 55 52 48 45 44 42 40 41 41 40 38 37 36 36 37 38 38 40 40 39 37 38 38 38 38 39 39 38 37 37 36 34 33 34 36 38 39 38 38 39 39 39 39 40 40 39 37 36 35 35 35 36 36 37 37 37 37 37 38 38 39 38 38
Wind_Direction
338 344 345 342 341 341 347 349 343 333 323 321 326 324 315 302 281 270 277 290 295 294 294 289 282 274 261 252 255 268 278 280 282 283 281 277 271 267 263 259 260 264 269 271 274 277 278 276 270 265 270 272 272 278 289 293 292 291 290 279 270 267 265 262 261 260 254 250 251 256 259 259 258 264 274 278 280 280 277 276 262 161 131 119 111
349 351 358 359 358 357 2 4 350 331 321 318 318 320 319 317 312 290 274 274 280 287 295 293 280 272 270 262 254 259 268 273 277 279 278 277 273 267 264 261 261 264 268 271 274 276 276 273 267 263 266 268 269 274 283 289 286 284 285 281 271 267 265 261 258 255 250 250 251 253 256 255 257 266 273 276 277 275 268 247 192 156 148 145 156
336 340 354 3 6 7 9 9 360 341 329 326 324 325 324 318 320 313 290 276 277 279 285 290 276 266 273 275 267 262 264 266 272 278 280 279 276 269 265 262 261 262 266 269 273 275 274 271 265 262 264 267 269 272 279 286 284 281 280 280 273 267 266 263 259 252 247 248 249 251 253 251 255 264 269 271 270 262 244 205 177 163 166 175 213
317 323 340 356 6 9 9 7 2 358 348 339 337 341 343 333 319 311 306 294 287 279 274 280 277 271 274 278 278 273 268 266 266 273 280 282 277 270 267 265 262 263 266 269 273 274 272 269 264 261 263 266 269 272 277 282 282 279 276 275 271 265 262 262 258 250 244 244 248 250 249 248 254 260 264 265 260 241 213 190 178 172 182 203 257
309 315 332 348 358 360 356 347 343 345 342 337 334 335 338 337 325 316 315 309 302 291 276 271 273 275 275 276 278 277 275 271 266 269 276 281 277 269 265 265 264 264 266 269 272 273 270 267 263 259 260 264 268 270 275 279 281 278 273 268 266 262 259 258 256 251 245 243 246 247 246 247 253 257 259 257 245 220 198 188 182 181 194 225 273
312 317 332 341 340 333 323 317 315 315 316 318 318 319 319 317 311 307 304 303 302 297 285 275 274 274 273 274 272 272 275 274 272 272 274 279 277 270 264 262 263 262 264 267 270 271 270 267 262 258 257 261 265 267 271 276 277 276 270 263 261 260 257 255 253 249 245 243 244 244 243 246 251 253 253 244 226 206 194 189 187 192 204 233 271
313 319 328 332 324 311 301 297 296 296 296 298 299 300 301 300 298 297 295 293 291 289 284 279 278 275 273 275 268 266 272 275 281 282 277 278 277 271 266 263 262 262 262 265 268 269 268 265 263 259 256 257 261 263 267 273 275 274 268 260 257 258 257 254 251 247 243 242 241 240 241 245 249 249 243 231 214 200 194 192 194 199 210 231 258
310 317 322 322 316 306 298 295 293 290 288 287 288 288 289 289 289 291 292 291 289 286 283 279 280 282 282 281 271 268 270 267 274 284 281 276 274 271 268 263 260 259 259 261 264 266 265 264 262 261 257 255 256 259 264 270 272 272 266 259 256 256 256 253 250 246 243 242 240 236 239 244 246 243 234 224 209 197 196 196 199 205 212 221 217
301 307 309 309 310 308 304 302 298 294 290 285 284 285 285 286 286 287 288 289 291 290 288 284 282 283 286 286 279 274 272 265 262 269 275 275 272 268 265 260 254 254 257 259 260 263 266 265 263 260 258 254 252 255 261 265 268 268 264 258 256 254 252 248 246 244 242 242 239 236 238 241 244 239 228 221 208 198 198 199 203 209 211 204 174
305 305 305 307 309 310 309 306 303 299 294 288 284 283 284 287 289 290 289 287 288 290 293 293 290 287 284 285 282 275 274 270 262 259 261 267 269 265 259 254 252 255 257 257 258 262 265 267 264 260 257 254 250 251 257 261 262 263 261 256 253 251 246 242 241 241 240 240 238 235 236 238 240 236 226 220 209 200 200 202 207 212 209 191 166
309 308 308 312 312 309 306 302 299 297 294 291 289 289 292 294 297 299 298 295 292 290 292 295 297 296 292 288 283 275 271 271 267 260 254 256 262 261 256 251 251 257 258 257 258 259 263 266 264 261 257 254 251 250 255 258 258 258 257 253 249 245 241 238 238 237 237 238 237 235 234 236 237 233 225 219 210 203 201 204 210 213 206 187 171
309 311 310 310 309 306 302 298 296 293 290 292 297 303 306 306 305 305 305 303 300 297 293 292 293 294 294 293 289 281 274 269 264 259 254 253 255 255 255 253 251 252 254 256 258 258 261 263 263 262 257 252 249 250 254 257 256 256 254 250 244 241 238 238 238 236 235 235 236 237 235 234 236 232 227 220 212 206 204 207 212 213 205 189 178
308 311 310 307 305 303 300 298 296 293 292 301 310 313 312 310 308 307 305 303 300 298 296 293 290 288 287 288 287 282 275 271 263 256 256 257 257 255 257 258 253 249 248 252 257 257 257 258 258 259 256 250 248 251 255 257 257 256 253 247 241 238 238 238 238 235 234 233 234 236 236 234 235 233 228 223 215 210 208 210 214 213 206 193 185
304 307 308 307 304 302 301 300 299 300 305 314 313 306 305 305 303 303 304 303 299 296 294 291 288 286 284 282 282 278 274 275 269 261 256 254 255 256 258 258 251 247 245 248 255 255 254 254 253 254 252 249 248 251 254 256 256 255 250 244 239 237 238 237 236 234 232 232 233 235 234 233 233 232 229 225 218 214 213 214 216 215 208 198 191
299 301 303 302 301 299 299 301 305 308 310 310 306 302 304 306 303 300 302 304 301 298 297 293 286 282 281 280 279 276 276 276 271 264 258 254 255 257 257 252 245 243 244 247 253 253 252 252 250 248 248 249 249 251 253 253 254 252 247 242 239 238 238 234 232 232 230 230 234 236 234 232 232 232 229 226 221 217 217 217 218 218 211 203 199
293 294 295 296 296 295 295 300 305 306 302 303 304 304 304 305 304 302 301 301 298 296 298 298 293 286 282 281 278 276 275 273 269 267 265 263 262 260 256 248 239 237 242 248 252 253 252 251 248 246 245 248 250 249 249 251 251 248 241 239 239 237 236 233 231 231 229 228 233 237 236 232 230 231 229 227 224 220 221 221 220 221 216 209 206
289 289 289 289 290 291 292 297 301 301 299 301 302 302 301 303 303 302 299 298 295 293 293 294 294 292 288 284 280 278 275 271 269 271 271 269 267 262 255 246 239 236 239 246 249 249 251 250 248 247 245 247 250 248 247 249 248 243 237 235 237 237 235 233 231 231 230 228 231 235 236 234 231 232 231 228 226 223 223 223 222 223 220 213 210
289 289 287 286 288 289 291 294 297 296 297 299 300 300 301 302 303 303 301 299 296 294 291 290 290 290 287 284 281 279 276 272 270 269 270 269 269 266 255 246 241 238 239 245 246 244 246 247 247 247 245 246 249 247 245 245 243 239 235 234 234 234 234 234 232 231 232 231 231 232 234 234 232 232 232 229 226 225 225 224 224 223 222 217 213
293 293 291 290 289 290 291 293 295 296 297 299 299 300 301 301 303 304 303 301 299 296 293 291 290 286 283 281 280 277 274 271 269 268 268 267 268 269 260 247 240 238 241 247 247 242 242 244 244 245 245 244 245 243 241 241 240 236 235 235 234 232 233 234 234 233 234 233 231 230 230 232 232 231 232 230 227 227 227 226 225 225 223 220 216
294 294 292 291 291 292 295 296 297 298 298 297 298 299 301 302 304 304 303 301 300 298 296 294 291 285 280 278 278 275 272 271 269 267 266 266 264 265 264 253 241 237 242 249 246 241 241 241 241 243 245 244 242 239 238 237 236 234 234 234 233 232 233 234 235 234 234 233 231 230 230 231 233 232 233 231 228 228 230 229 228 228 227 224 220
295 292 291 291 293 295 296 297 298 298 298 297 298 301 302 303 304 303 302 300 300 300 300 297 293 289 284 280 278 274 272 271 269 266 264 263 262 261 263 257 242 234 240 245 242 238 238 238 238 241 245 244 240 237 237 236 233 233 234 232 231 232 233 233 232 231 232 233 232 232 233 233 234 234 233 232 229 229 231 231 231 232 232 230 226
296 294 294 295 295 296 297 297 298 298 298 298 301 303 303 302 301 300 300 301 303 304 304 301 297 293 289 284 280 275 272 270 267 264 262 261 260 259 261 259 248 239 238 238 237 237 237 239 241 242 244 244 238 235 236 234 231 233 234 232 229 230 231 230 229 227 228 231 233 234 235 235 235 235 234 232 230 229 231 232 233 234 235 234 232
297 296 296 296 296 296 296 296 296 295 296 298 300 301 302 301 300 300 300 301 303 305 306 304 299 295 291 286 281 275 272 270 265 261 260 260 259 258 258 258 254 249 243 236 235 238 240 243 244 243 244 242 237 235 235 233 231 233 235 232 228 227 228 227 225 225 227 229 232 234 236 237 236 236 234 232 230 229 232 233 234 234 235 235 233
298 297 296 295 295 294 294 294 293 293 294 296 298 299 300 301 301 302 301 301 301 302 304 303 300 297 292 287 281 276 271 269 265 261 260 259 259 258 257 256 254 253 248 238 236 240 241 243 244 243 244 242 236 234 234 234 232 234 234 230 226 226 226 226 225 225 227 229 231 234 236 238 238 238 237 234 231 230 232 234 235 235 235 235 235
297 296 295 294 293 293 292 291 291 291 291 292 295 298 299 300 300 301 302 301 301 302 303 303 301 298 293 288 280 274 269 266 264 261 259 258 257 256 257 257 254 252 249 244 242 243 243 243 243 245 245 239 234 233 233 232 232 234 233 228 226 226 226 227 226 226 228 230 233 236 238 240 240 240 239 236 233 231 232 234 236 236 236 237 237
295 295 294 294 293 292 292 292 292 292 291 291 294 297 299 300 300 300 301 301 301 303 303 302 301 299 294 287 278 271 267 264 262 259 257 256 254 253 254 256 254 251 250 248 245 244 244 242 240 244 244 234 229 230 231 231 231 233 231 226 225 227 228 228 227 228 230 232 235 238 240 241 242 241 240 238 235 232 233 235 237 238 238 239 240
296 295 295 294 294 294 294 294 295 294 292 292 294 297 298 299 299 299 300 300 300 302 302 302 301 299 294 286 277 272 266 262 259 256 254 253 252 250 251 253 254 253 251 249 245 243 241 238 237 241 238 229 224 226 230 231 230 231 231 226 225 228 230 229 229 230 231 234 236 239 241 242 241 241 240 238 237 234 233 234 236 238 240 241 242
297 296 296 295 295 294 295 295 295 293 291 291 293 295 297 298 298 298 299 299 299 301 302 303 303 302 296 287 278 272 267 261 257 254 251 251 250 249 249 251 252 252 251 248 245 243 240 237 236 237 233 226 221 220 226 231 228 228 228 225 226 229 230 230 231 232 234 236 238 239 241 242 241 240 239 239 238 236 235 234 236 238 240 242 244
296 296 295 295 294 293 293 294 293 292 291 291 293 295 297 297 298 297 297 297 299 301 302 304 305 304 299 289 278 271 265 259 255 251 247 246 247 247 246 246 248 250 253 249 241 238 238 236 233 231 227 223 218 214 221 228 226 224 224 224 226 228 229 231 233 236 238 239 239 240 240 241 241 240 239 239 239 238 236 236 236 238 240 242 244
295 295 294 294 293 292 292 293 293 293 293 292 293 295 296 297 297 297 296 296 298 301 302 304 306 307 301 290 279 270 263 259 254 250 245 242 242 242 241 242 244 247 251 248 237 231 233 230 226 224 221 219 216 214 219 226 226 223 223 224 226 227 228 232 235 238 239 239 240 240 241 241 241 240 239 239 239 239 238 237 237 238 240 242 244
294 294 294 293 293 292 292 293 293 294 294 294 294 295 295 296 296 296 296 296 298 301 303 304 306 307 303 292 280 270 263 259 256 251 245 240 238 238 239 241 244 247 249 246 237 232 232 228 222 220 219 218 218 218 220 225 227 226 224 225 226 227 228 232 236 239 240 240 241 242 242 242 241 241 240 239 239 239 239 239 238 239 240 242 244
293 293 293 293 293 292 291 292 293 294 295 296 296 296 296 296 296 296 296 297 299 301 303 304 306 308 303 292 280 269 262 259 257 252 246 241 238 238 239 240 244 247 248 243 236 232 231 229 225 222 221 221 221 222 223 226 230 229 224 223 225 227 228 233 238 241 242 242 243 243 243 241 241 241 241 240 240 239 239 239 239 239 240 242 243
293 293 293 292 292 291 291 292 293 295 296 297 297 296 296 296 296 296 296 297 299 301 303 304 306 308 303 291 279 270 263 259 257 252 247 242 239 238 239 240 241 243 243 239 235 231 228 228 229 227 226 222 220 222 224 227 232 231 223 222 224 225 228 233 238 241 242 243 243 244 243 241 240 240 241 241 240 240 240 240 240 240 241 242 242
292 292 292 292 291 291 291 292 293 295 295 296 296 296 295 295 296 297 297 298 298 300 302 304 306 308 304 291 278 272 266 261 257 253 248 243 237 236 238 239 237 237 237 236 234 232 230 229 230 231 228 221 217 220 223 227 233 232 226 224 224 225 229 235 238 240 242 243 243 244 243 241 241 240 241 242 241 241 240 240 240 240 241 242 243
291 291 291 291 291 290 290 291 292 294 294 295 295 295 295 295 296 297 297 298 298 299 301 303 305 308 305 293 278 272 269 262 256 253 249 243 237 234 235 236 236 236 237 235 234 234 233 231 230 230 228 221 217 220 225 228 231 232 230 227 226 227 231 237 239 240 241 242 243 243 242 241 241 241 241 242 241 241 241 241 241 241 242 243 243
290 290 290 290 289 289 289 290 291 292 293 295 296 296 296 296 296 297 298 298 299 299 300 303 305 308 307 296 281 273 270 263 257 254 250 244 237 233 232 232 235 237 236 234 234 235 234 231 229 229 227 223 220 223 228 230 230 233 233 230 229 230 233 236 238 238 239 241 242 242 242 242 241 241 241 241 242 242 241 241 241 241 242 243 244
289 289 289 289 289 289 289 289 290 291 293 295 297 298 298 297 297 297 298 298 298 300 301 303 305 307 307 299 284 274 270 263 257 253 250 243 236 231 230 230 233 235 234 234 236 235 232 229 228 227 227 225 224 227 231 233 233 233 233 231 229 230 232 235 236 237 239 240 240 240 241 241 241 240 240 241 241 242 242 242 242 242 243 244 245
290 290 289 289 289 289 289 290 291 292 293 295 297 298 298 298 298 297 297 297 298 300 301 302 304 306 307 300 286 275 269 263 257 254 249 243 237 233 231 231 233 234 234 235 234 232 230 228 227 227 227 225 225 228 232 234 234 233 232 229 226 227 231 234 236 238 238 237 237 239 240 241 241 240 240 240 241 242 243 243 243 243 244 245 246
291 291 290 290 290 290 290 290 291 292 293 295 296 297 297 297 297 297 297 298 298 299 300 300 302 304 306 301 288 276 270 265 259 255 249 243 240 236 232 232 233 235 236 235 232 229 229 228 226 227 229 227 225 227 231 233 232 230 231 230 228 228 230 233 235 236 235 234 236 238 240 241 242 241 241 241 242 243 244 245 245 245 245 246 247
292 292 292 291 291 291 291 291 291 292 293 294 295 296 297 297 297 296 296 297 298 298 298 298 299 301 303 301 289 277 271 267 261 256 248 242 239 236 232 232 234 234 234 234 233 230 227 227 227 229 230 230 227 226 230 233 233 233 234 235 234 231 231 233 234 233 232 232 234 237 240 242 242 242 242 241 241 242 243 244 246 247 246 246 247
293 293 292 292 291 291 291 290 290 291 291 292 293 294 296 296 296 296 296 296 296 297 297 296 296 297 299 299 292 279 271 267 263 257 249 243 239 237 234 233 233 233 232 233 232 231 228 227 230 230 229 229 227 225 228 233 234 234 233 234 234 232 233 234 233 232 232 232 234 238 241 242 242 242 241 240 240 240 240 242 244 245 245 244 245
295 294 293 292 292 291 291 290 290 289 290 290 291 292 293 294 294 295 295 295 295 295 295 294 292 292 294 295 293 284 274 267 263 256 250 245 241 238 237 235 233 232 232 232 230 229 228 227 228 228 226 225 225 224 225 228 230 229 230 232 232 232 233 234 234 234 234 234 237 240 241 241 242 241 241 240 240 239 239 240 242 244 244 243 243
295 294 294 293 292 292 291 291 290 290 290 289 290 290 291 292 292 292 293 293 293 293 293 291 289 288 288 289 290 287 278 270 266 258 250 246 243 239 237 236 234 232 232 232 231 229 227 226 225 227 226 224 223 223 222 224 227 229 230 231 231 231 232 235 236 234 232 234 238 239 239 240 240 240 240 240 240 240 239 239 241 242 244 245 246
294 294 293 293 292 292 291 291 290 290 290 289 289 289 289 290 290 290 290 290 290 290 289 289 287 285 285 285 286 285 281 273 268 263 254 247 244 240 236 235 235 234 232 233 234 232 229 226 225 225 225 223 222 222 222 225 228 229 229 229 229 229 231 236 237 231 229 235 239 239 239 241 241 241 241 241 242 241 241 241 241 243 245 247 248
295 294 293 293 292 292 292 291 290 290 289 289 289 288 288 288 288 288 288 288 288 287 286 286 285 282 281 281 281 282 281 274 268 264 259 252 247 242 237 233 233 233 232 231 233 233 231 229 227 225 224 224 224 224 224 226 228 229 228 228 228 227 230 234 235 232 233 237 239 240 241 242 243 243 243 243 243 243 243 244 245 245 246 248 250
296 295 294 293 292 292 291 291 290 289 289 288 288 288 287 287 287 287 286 286 286 285 284 283 282 280 278 278 278 278 278 275 268 262 259 255 250 243 236 232 231 230 230 229 230 233 234 233 231 228 226 224 225 226 227 227 228 229 229 228 227 227 228 229 232 236 240 241 240 241 242 242 243 244 244 245 245 246 246 247 247 248 249 250 252
296 295 295 294 293 292 291 290 289 288 287 286 286 285 285 285 285 284 284 284 283 282 281 280 279 277 274 273 274 274 274 274 270 263 257 254 250 242 236 233 232 230 229 228 229 232 236 236 234 232 230 227 226 228 230 230 229 229 230 230 228 226 226 226 229 236 242 243 243 244 244 243 244 244 246 248 249 249 249 249 250 251 252 253 254
296 296 295 294 293 292 291 290 289 288 286 285 284 283 282 282 281 281 281 281 280 280 279 277 276 273 270 269 270 271 270 271 270 265 257 252 249 243 237 235 234 232 230 229 229 231 234 235 234 234 234 232 230 231 231 230 230 229 230 229 227 226 226 228 230 235 239 241 243 245 246 246 245 245 247 250 252 251 251 252 253 254 255 255 256
298 297 296 295 294 293 292 291 289 288 286 285 284 282 281 280 279 279 278 278 278 277 276 274 273 271 268 265 265 266 267 267 267 265 257 250 247 244 239 236 236 234 232 231 230 231 234 235 234 235 236 235 234 232 231 230 230 230 230 229 228 229 231 231 233 235 238 240 242 245 246 245 245 246 248 249 250 250 252 254 256 257 257 257 258
300 300 299 298 297 295 294 293 291 290 287 285 284 282 280 279 277 276 276 275 275 274 273 271 270 268 265 262 259 261 263 263 263 263 260 253 248 246 243 239 238 237 234 232 231 233 235 235 235 235 237 236 235 233 234 233 231 232 232 230 229 232 234 233 234 235 237 239 242 244 245 245 246 247 247 247 248 250 253 255 256 256 257 257 259
304 303 303 302 301 300 298 296 294 292 290 287 284 282 280 278 276 275 273 272 272 272 271 269 267 264 263 260 256 255 258 259 259 259 259 256 252 248 246 242 240 238 236 234 233 234 235 236 236 235 235 236 235 234 233 231 229 231 234 232 230 232 235 235 235 236 237 238 240 243 245 246 247 247 246 246 248 250 251 252 253 254 256 257 258
Height
5842 5841 5840 5839 5837 5837 5836 5835 5835 5835 5834 5834 5833 5832 5831 5830 5830 5830 5829 5829 5828 5828 5827 5826 5826 5826 5827 5827 5828 5828 5828 5827 5826 5825 5825 5824 5823 5822 5822 5822 5822 5822 5822 5821 5821 5820 5819 5819 5819 5819 5818 5818 5817 5817 5816 5815 5815 5814 5814 5813 5813 5813 5812 5812 5812 5812 5812 5812 5811 5811 5811 5810 5810 5810 5809 5809 5809 5808 5808 5808 5808 5807 5807 5807 5807
5841 5840 5839 5837 5836 5835 5834 5834 5833 5833 5833 5833 5832 5831 5830 5829 5829 5828 5828 5827 5827 5826 5826 5825 5825 5825 5825 5825 5826 5826 5826 5825 5824 5823 5822 5822 5821 5820 5820 5820 5820 5820 5820 5820 5820 5819 5818 5818 5817 5817 5817 5817 5817 5816 5815 5814 5814 5813 5813 5812 5812 5812 5812 5811 5812 5812 5811 5811 5811 5810 5810 5810 5810 5809 5809 5809 5809 5808 5808 5808 5808 5807 5807 5807 5807
5840 5839 5838 5836 5835 5834 5833 5832 5832 5832 5831 5831 5830 5830 5829 5828 5828 5827 5826 5826 5825 5825 5824 5824 5824 5823 5823 5823 5823 5824 5823 5823 5822 5821 5820 5820 5819 5819 5818 5818 5818 5818 5819 5819 5818 5818 5817 5816 5816 5816 5816 5816 5816 5815 5814 5813 5813 5813 5812 5812 5811 5811 5811 5811 5811 5811 5811 5810 5810 5810 5809 5809 5809 5809 5809 5808 5808 5808 5808 5808 5808 5807 5807 5807 5807
5839 5838 5837 5835 5834 5833 5832 5832 5831 5831 5830 5829 5828 5828 5828 5827 5826 5825 5825 5824 5824 5823 5822 5822 5822 5821 5821 5821 5821 5821 5821 5821 5820 5819 5818 5817 5817 5817 5816 5816 5816 5817 5817 5817 5817 5816 5816 5815 5815 5815 5815 5815 5815 5814 5813 5813 5812 5812 5811 5811 5811 5810 5810 5810 5810 5810 5810 5810 5809 5809 5809 5809 5809 5809 5808 5808 5808 5808 5808 5808 5808 5808 5807 5807 5807
5838 5837 5835 5834 5833 5832 5832 5831 5831 5830 5829 5828 5827 5826 5826 5826 5825 5824 5823 5822 5821 5821 5820 5820 5819 5819 5819 5819 5819 5819 5819 5819 5818 5818 5817 5815 5815 5814 5814 5814 5814 5815 5815 5816 5816 5815 5814 5814 5813 5813 5813 5813 5813 5813 5812 5812 5811 5811 5810 5810 5810 5810 5810 5810 5809 5809 5809 5809 5809 5809 5808 5808 5808 5808 5808 5808 5808 5808 5807 5808 5808 5808 5808 5807 5807
5837 5836 5834 5833 5832 5831 5831 5831 5830 5829 5828 5827 5826 5825 5824 5824 5823 5822 5821 5820 5820 5818 5818 5817 5816 5816 5816 5816 5817 5817 5817 5816 5816 5816 5816 5814 5813 5812 5812 5812 5812 5813 5813 5814 5814 5814 5813 5812 5811 5811 5811 5812 5812 5812 5811 5811 5810 5810 5809 5809 5809 5809 5809 5809 5809 5808 5808 5808 5808 5808 5808 5808 5808 5808 5807 5807 5807 5807 5807 5807 5808 5808 5808 5808 5807
5836 5834 5832 5831 5830 5830 5830 5829 5829 5828 5827 5826 5825 5823 5822 5822 5821 5820 5819 5818 5817 5816 5815 5814 5814 5813 5813 5813 5814 5814 5814 5813 5813 5814 5814 5814 5812 5811 5810 5810 5811 5811 5811 5812 5812 5812 5811 5810 5810 5809 5810 5810 5810 5810 5810 5809 5809 5809 5808 5808 5808 5808 5808 5808 5808 5808 5807 5808 5808 5807 5807 5807 5807 5807 5806 5806 5806 5807 5807 5807 5807 5808 5808 5808 5807
5834 5833 5832 5830 5829 5828 5828 5828 5827 5826 5825 5824 5823 5822 5820 5820 5819 5819 5817 5816 5815 5814 5813 5812 5811 5811 5811 5810 5810 5810 5810 5809 5810 5811 5812 5812 5811 5809 5809 5809 5809 5809 5809 5810 5810 5810 5810 5809 5808 5808 5808 5808 5809 5809 5809 5808 5808 5808 5807 5807 5807 5807 5807 5806 5806 5807 5807 5807 5807 5807 5807 5807 5807 5806 5806 5806 5806 5806 5806 5807 5807 5807 5808 5808 5807
5833 5832 5831 5829 5828 5827 5827 5826 5825 5824 5823 5822 5821 5819 5818 5817 5817 5816 5816 5814 5813 5811 5811 5810 5810 5809 5809 5808 5807 5807 5807 5805 5806 5807 5809 5809 5809 5808 5807 5806 5807 5807 5807 5808 5808 5808 5808 5807 5807 5806 5806 5806 5807 5807 5807 5807 5807 5806 5806 5806 5805 5805 5805 5805 5805 5805 5806 5806 5806 5806 5806 5806 5806 5806 5806 5806 5806 5806 5806 5806 5807 5807 5808 5808 5807
5832 5831 5830 5829 5828 5826 5825 5824 5823 5822 5820 5819 5818 5817 5816 5815 5814 5814 5814 5813 5812 5810 5809 5809 5808 5808 5808 5807 5805 5805 5805 5804 5802 5803 5805 5806 5806 5806 5805 5804 5805 5805 5805 5806 5806 5806 5806 5806 5805 5805 5804 5804 5805 5805 5805 5805 5805 5805 5805 5804 5804 5804 5804 5804 5804 5804 5805 5805 5805 5805 5805 5805 5805 5805 5805 5805 5805 5805 5806 5806 5807 5807 5807 5808 5807
5830 5829 5828 5827 5826 5825 5823 5822 5820 5819 5817 5816 5815 5815 5814 5814 5813 5813 5813 5812 5812 5811 5809 5808 5807 5807 5806 5805 5804 5803 5803 5802 5801 5801 5802 5803 5803 5803 5803 5803 5803 5803 5803 5803 5804 5804 5804 5804 5803 5803 5803 5803 5803 5804 5804 5803 5803 5803 5803 5803 5802 5802 5802 5802 5803 5803 5804 5804 5804 5804 5804 5804 5805 5805 5805 5805 5805 5805 5805 5806 5806 5807 5807 5807 5808
5828 5827 5826 5825 5823 5822 5820 5819 5818 5816 5815 5814 5815 5815 5814 5813 5812 5811 5811 5810 5810 5809 5809 5808 5807 5806 5805 5804 5803 5802 5801 5800 5799 5799 5800 5800 5800 5800 5801 5800 5800 5800 5800 5801 5802 5802 5802 5802 5801 5801 5801 5801 5801 5802 5802 5802 5802 5801 5801 5801 5801 5801 5801 5801 5802 5802 5803 5803 5803 5804 5804 5804 5804 5804 5804 5804 5804 5804 5805 5805 5805 5806 5807 5807 5808
5825 5824 5823 5822 5820 5818 5817 5816 5814 5813 5813 5815 5815 5814 5813 5811 5810 5809 5808 5807 5806 5805 5805 5805 5805 5804 5803 5802 5802 5801 5800 5798 5797 5797 5797 5797 5797 5797 5797 5797 5797 5797 5797 5798 5799 5799 5800 5799 5799 5798 5799 5799 5800 5800 5800 5800 5800 5800 5800 5800 5800 5800 5800 5800 5801 5801 5801 5802 5802 5802 5803 5803 5803 5803 5803 5804 5804 5804 5804 5805 5805 5806 5806 5807 5807
5823 5821 5820 5819 5817 5815 5814 5812 5811 5811 5813 5814 5813 5811 5810 5809 5808 5807 5805 5804 5802 5801 5801 5801 5801 5800 5799 5798 5798 5798 5798 5797 5796 5794 5794 5794 5794 5794 5794 5794 5793 5793 5794 5795 5796 5797 5797 5797 5797 5796 5797 5797 5798 5798 5799 5798 5798 5798 5798 5798 5799 5798 5798 5799 5799 5800 5800 5800 5801 5801 5801 5801 5802 5802 5803 5803 5803 5804 5804 5804 5804 5805 5806 5806 5807
5821 5819 5818 5816 5815 5813 5812 5810 5809 5811 5812 5811 5809 5807 5807 5806 5806 5805 5803 5802 5800 5798 5798 5797 5796 5796 5795 5795 5795 5794 5795 5795 5793 5791 5790 5790 5790 5790 5790 5791 5790 5790 5791 5792 5793 5794 5794 5794 5794 5794 5794 5795 5796 5796 5796 5796 5796 5796 5796 5797 5797 5797 5797 5797 5798 5798 5798 5799 5799 5799 5800 5800 5801 5801 5801 5802 5803 5803 5803 5804 5804 5804 5805 5805 5806
5819 5818 5816 5814 5813 5812 5810 5809 5809 5808 5807 5806 5805 5804 5804 5804 5803 5802 5800 5799 5798 5797 5795 5794 5794 5793 5792 5792 5791 5791 5792 5791 5789 5788 5788 5787 5787 5787 5786 5787 5787 5787 5788 5789 5789 5790 5791 5791 5791 5791 5792 5793 5793 5794 5794 5794 5794 5794 5794 5795 5795 5795 5795 5795 5796 5796 5796 5797 5798 5798 5798 5799 5799 5800 5800 5801 5802 5802 5803 5803 5803 5804 5804 5804 5805
5817 5816 5814 5813 5812 5810 5809 5808 5807 5805 5803 5802 5802 5801 5800 5800 5799 5798 5796 5796 5795 5794 5793 5792 5792 5791 5790 5789 5788 5787 5788 5787 5786 5786 5785 5784 5784 5783 5782 5782 5783 5783 5784 5785 5786 5787 5788 5788 5788 5788 5789 5790 5790 5791 5792 5792 5792 5792 5792 5793 5793 5793 5794 5794 5794 5794 5795 5795 5796 5796 5797 5797 5798 5798 5799 5799 5800 5801 5802 5802 5803 5803 5803 5803 5804
5813 5813 5812 5811 5810 5809 5807 5806 5804 5802 5801 5800 5799 5798 5797 5796 5795 5794 5793 5793 5793 5792 5791 5789 5789 5788 5786 5785 5784 5783 5784 5783 5783 5783 5781 5781 5781 5780 5779 5779 5779 5780 5781 5782 5783 5784 5784 5784 5785 5785 5786 5787 5788 5788 5789 5789 5790 5790 5790 5791 5791 5792 5792 5792 5792 5793 5793 5794 5794 5794 5795 5796 5796 5797 5797 5798 5799 5800 5801 5801 5802 5802 5802 5802 5803
5809 5808 5808 5807 5807 5805 5804 5803 5801 5800 5799 5797 5796 5795 5794 5792 5792 5791 5790 5790 5789 5789 5788 5786 5786 5785 5782 5781 5780 5779 5780 5779 5779 5779 5778 5778 5777 5777 5776 5775 5776 5777 5778 5778 5779 5780 5781 5781 5782 5782 5783 5784 5785 5785 5786 5786 5787 5788 5788 5789 5789 5790 5790 5790 5791 5792 5792 5792 5792 5792 5793 5794 5795 5795 5796 5796 5797 5798 5799 5800 5800 5801 5801 5801 5801
5806 5805 5804 5803 5803 5801 5800 5798 5797 5796 5795 5795 5794 5792 5791 5789 5789 5788 5787 5786 5785 5785 5784 5783 5782 5781 5778 5777 5777 5776 5775 5776 5775 5775 5775 5774 5774 5773 5773 5772 5773 5774 5775 5775 5776 5777 5778 5778 5779 5779 5780 5781 5782 5782 5783 5784 5785 5785 5786 5786 5787 5787 5788 5789 5789 5790 5790 5790 5790 5790 5791 5792 5793 5794 5794 5795 5796 5797 5798 5798 5799 5799 5799 5800 5800
5803 5802 5801 5800 5798 5797 5796 5794 5794 5793 5792 5791 5790 5789 5788 5786 5785 5785 5784 5783 5782 5780 5780 5779 5777 5776 5774 5772 5772 5771 5771 5771 5771 5771 5771 5771 5771 5770 5769 5770 5770 5771 5772 5772 5772 5773 5774 5775 5775 5776 5777 5778 5779 5780 5780 5781 5782 5783 5783 5784 5784 5785 5786 5787 5787 5788 5788 5788 5788 5789 5789 5790 5791 5792 5793 5794 5794 5795 5796 5797 5797 5798 5798 5799 5799
5799 5798 5797 5795 5794 5793 5792 5791 5790 5789 5788 5787 5786 5785 5784 5783 5783 5782 5781 5779 5778 5776 5775 5775 5773 5771 5770 5768 5768 5767 5766 5767 5767 5767 5767 5767 5768 5767 5766 5766 5767 5768 5768 5768 5769 5769 5771 5772 5772 5773 5774 5775 5776 5776 5777 5778 5779 5780 5781 5781 5782 5783 5783 5784 5785 5785 5786 5786 5786 5787 5787 5788 5789 5790 5791 5792 5793 5793 5794 5795 5796 5797 5797 5797 5798
5796 5794 5793 5792 5791 5790 5789 5788 5787 5786 5785 5784 5783 5782 5781 5780 5779 5779 5777 5775 5774 5772 5771 5770 5769 5767 5765 5765 5764 5762 5762 5762 5763 5763 5763 5763 5764 5763 5763 5763 5763 5763 5763 5764 5765 5766 5768 5769 5769 5770 5771 5771 5773 5773 5774 5775 5776 5777 5778 5778 5779 5780 5781 5782 5782 5782 5783 5784 5784 5785 5785 5786 5787 5788 5789 5790 5791 5791 5792 5793 5794 5795 5795 5796 5796
5793 5792 5791 5790 5789 5788 5787 5786 5785 5783 5782 5781 5780 5779 5778 5777 5775 5774 5773 5772 5770 5768 5767 5766 5765 5763 5761 5760 5760 5758 5758 5758 5758 5758 5759 5760 5760 5760 5760 5759 5759 5760 5760 5760 5762 5763 5764 5765 5765 5766 5767 5768 5769 5770 5771 5772 5773 5774 5775 5775 5776 5777 5778 5779 5779 5780 5781 5782 5782 5783 5783 5784 5785 5786 5787 5788 5788 5789 5790 5791 5792 5793 5793 5794 5794
5791 5790 5789 5788 5787 5786 5785 5783 5782 5781 5780 5778 5777 5776 5775 5774 5772 5771 5770 5768 5766 5764 5763 5761 5760 5759 5757 5755 5754 5754 5753 5753 5753 5754 5755 5755 5756 5756 5756 5756 5756 5756 5756 5757 5758 5759 5760 5761 5762 5762 5763 5764 5766 5767 5768 5769 5770 5771 5772 5773 5774 5775 5776 5776 5777 5778 5778 5779 5780 5781 5781 5782 5783 5784 5785 5785 5786 5787 5787 5788 5790 5791 5791 5792 5792
5789 5788 5786 5785 5784 5783 5781 5780 5779 5778 5776 5775 5774 5772 5771 5770 5769 5767 5766 5764 5762 5761 5759 5757 5755 5754 5752 5750 5749 5749 5748 5748 5749 5750 5750 5750 5751 5751 5752 5752 5752 5752 5752 5753 5754 5755 5756 5757 5758 5758 5759 5761 5763 5764 5764 5765 5767 5768 5769 5770 5771 5772 5773 5774 5775 5775 5776 5777 5778 5778 5779 5780 5780 5781 5782 5783 5783 5784 5785 5786 5787 5788 5789 5790 5790
5785 5784 5783 5782 5780 5779 5777 5776 5775 5774 5773 5771 5770 5769 5767 5766 5765 5764 5762 5760 5758 5756 5755 5753 5751 5749 5748 5746 5745 5744 5744 5743 5744 5745 5745 5745 5746 5747 5747 5747 5748 5748 5749 5749 5749 5751 5752 5753 5753 5754 5755 5757 5759 5761 5762 5762 5764 5765 5766 5767 5768 5770 5771 5772 5773 5773 5774 5775 5775 5776 5776 5777 5778 5779 5780 5781 5781 5782 5782 5783 5785 5786 5787 5788 5788
5781 5780 5779 5777 5776 5775 5774 5773 5772 5771 5769 5768 5767 5765 5764 5762 5761 5759 5758 5755 5753 5752 5750 5749 5747 5745 5743 5741 5740 5740 5739 5739 5739 5740 5740 5740 5741 5742 5743 5743 5744 5744 5745 5744 5745 5747 5748 5748 5750 5751 5752 5753 5755 5758 5758 5759 5761 5762 5763 5764 5765 5767 5768 5769 5770 5771 5771 5772 5773 5773 5774 5775 5775 5776 5777 5778 5779 5779 5780 5780 5782 5783 5784 5785 5786
5776 5775 5774 5773 5772 5771 5770 5769 5768 5767 5766 5764 5763 5761 5759 5758 5756 5755 5753 5751 5749 5747 5745 5744 5742 5740 5738 5736 5736 5736 5735 5734 5734 5734 5734 5735 5736 5738 5739 5740 5740 5741 5741 5740 5741 5743 5743 5744 5746 5747 5748 5750 5752 5754 5754 5755 5757 5759 5759 5760 5762 5764 5765 5766 5767 5768 5769 5769 5770 5771 5771 5772 5773 5774 5775 5775 5776 5777 5777 5778 5779 5780 5781 5783 5784
5772 5771 5770 5769 5768 5767 5766 5765 5764 5763 5762 5760 5758 5757 5755 5753 5752 5750 5749 5747 5745 5743 5741 5739 5738 5736 5733 5731 5731 5731 5730 5730 5730 5730 5729 5730 5731 5734 5735 5736 5736 5737 5738 5737 5738 5739 5740 5740 5741 5742 5744 5746 5748 5749 5750 5752 5753 5755 5756 5758 5759 5760 5761 5763 5764 5765 5766 5766 5767 5768 5768 5769 5770 5771 5772 5773 5773 5774 5774 5775 5776 5777 5779 5780 5781
5767 5766 5765 5764 5764 5763 5761 5760 5759 5758 5757 5755 5754 5752 5751 5749 5747 5746 5744 5742 5741 5739 5736 5734 5733 5731 5729 5727 5727 5726 5725 5725 5726 5725 5725 5725 5726 5729 5731 5732 5733 5734 5735 5735 5736 5736 5737 5738 5739 5740 5741 5744 5745 5746 5747 5748 5750 5752 5754 5755 5756 5757 5759 5760 5761 5762 5763 5763 5764 5765 5765 5766 5767 5768 5769 5769 5770 5771 5771 5772 5773 5774 5776 5777 5778
5763 5761 5760 5759 5758 5757 5756 5755 5754 5753 5752 5750 5749 5747 5746 5744 5743 5742 5740 5738 5736 5734 5732 5730 5728 5726 5724 5723 5722 5721 5720 5721 5721 5721 5721 5722 5723 5725 5727 5729 5730 5731 5732 5732 5733 5733 5734 5735 5736 5738 5739 5741 5742 5743 5744 5745 5747 5749 5751 5752 5753 5754 5756 5757 5757 5759 5760 5760 5761 5762 5762 5763 5764 5765 5766 5766 5767 5768 5768 5769 5770 5771 5773 5774 5775
5758 5757 5755 5754 5753 5751 5750 5750 5748 5747 5746 5745 5744 5743 5741 5740 5738 5737 5735 5733 5731 5730 5728 5726 5724 5722 5720 5718 5718 5717 5716 5716 5717 5717 5717 5718 5719 5721 5723 5725 5726 5727 5728 5729 5729 5730 5731 5732 5734 5735 5737 5739 5740 5740 5741 5742 5744 5746 5748 5750 5750 5751 5752 5753 5754 5755 5757 5757 5758 5759 5759 5760 5761 5762 5763 5763 5764 5765 5765 5766 5767 5768 5769 5770 5772
5753 5751 5750 5749 5747 5746 5745 5744 5743 5742 5741 5740 5739 5738 5737 5736 5734 5732 5731 5729 5727 5725 5724 5722 5720 5718 5716 5714 5713 5713 5713 5712 5712 5713 5713 5714 5716 5717 5719 5720 5722 5723 5724 5725 5725 5726 5728 5730 5730 5732 5734 5736 5737 5738 5738 5740 5741 5743 5745 5747 5747 5748 5749 5750 5751 5752 5753 5754 5755 5755 5756 5757 5757 5758 5759 5760 5761 5761 5762 5763 5764 5765 5766 5767 5768
5748 5746 5745 5743 5742 5740 5739 5739 5738 5737 5736 5735 5734 5733 5732 5731 5729 5728 5726 5724 5722 5721 5720 5718 5716 5714 5712 5710 5709 5709 5708 5708 5708 5708 5708 5709 5711 5713 5715 5716 5718 5719 5719 5721 5722 5723 5725 5726 5727 5728 5730 5732 5734 5734 5735 5736 5738 5740 5742 5743 5744 5744 5745 5746 5747 5748 5749 5750 5751 5752 5752 5753 5754 5755 5756 5757 5757 5758 5759 5760 5760 5761 5763 5764 5764
5743 5741 5740 5738 5737 5735 5734 5733 5732 5731 5730 5729 5728 5728 5727 5726 5724 5723 5721 5720 5718 5716 5715 5714 5711 5710 5708 5706 5705 5705 5704 5704 5704 5704 5704 5705 5707 5710 5712 5713 5714 5714 5715 5717 5719 5720 5721 5722 5723 5725 5726 5728 5730 5730 5731 5732 5735 5736 5738 5740 5741 5741 5742 5743 5743 5744 5745 5746 5747 5748 5749 5749 5750 5751 5752 5753 5754 5755 5755 5756 5757 5758 5759 5760 5761
5737 5736 5734 5733 5732 5730 5729 5728 5727 5726 5725 5724 5723 5722 5721 5720 5719 5718 5717 5715 5714 5712 5710 5709 5707 5705 5704 5702 5701 5701 5700 5700 5700 5700 5700 5701 5703 5706 5708 5709 5709 5709 5710 5713 5715 5716 5716 5718 5720 5721 5722 5724 5726 5727 5727 5729 5731 5733 5734 5736 5737 5738 5738 5739 5740 5741 5742 5743 5744 5744 5745 5746 5747 5747 5749 5749 5750 5751 5752 5753 5754 5755 5756 5756 5757
5732 5731 5729 5728 5726 5725 5724 5723 5722 5721 5720 5719 5718 5717 5715 5714 5713 5712 5712 5711 5709 5708 5706 5704 5703 5701 5700 5698 5697 5696 5696 5695 5695 5696 5697 5698 5699 5701 5704 5705 5704 5705 5707 5709 5710 5711 5712 5714 5715 5716 5719 5721 5723 5724 5724 5725 5727 5729 5731 5732 5733 5734 5735 5736 5737 5737 5738 5739 5739 5740 5741 5742 5743 5744 5745 5746 5746 5747 5748 5749 5750 5751 5752 5753 5754
5727 5726 5724 5723 5721 5720 5719 5718 5716 5715 5714 5714 5712 5711 5710 5709 5708 5707 5706 5706 5705 5704 5702 5700 5698 5697 5696 5694 5693 5691 5691 5691 5691 5691 5692 5693 5695 5697 5699 5700 5700 5701 5703 5705 5706 5706 5707 5709 5710 5713 5715 5717 5718 5720 5720 5721 5723 5725 5727 5728 5729 5730 5731 5732 5733 5733 5734 5735 5735 5736 5737 5738 5739 5740 5741 5742 5743 5744 5745 5746 5747 5747 5748 5749 5750
5722 5721 5719 5718 5716 5715 5713 5712 5711 5710 5709 5708 5707 5706 5705 5703 5702 5702 5701 5701 5700 5699 5698 5696 5694 5693 5692 5690 5688 5687 5686 5686 5686 5686 5687 5688 5690 5691 5693 5694 5696 5697 5698 5700 5701 5702 5703 5704 5706 5709 5711 5712 5714 5716 5716 5717 5720 5722 5724 5724 5725 5727 5727 5727 5728 5729 5730 5730 5731 5732 5733 5734 5736 5736 5737 5738 5739 5740 5741 5742 5743 5744 5744 5745 5746
5717 5715 5714 5713 5711 5709 5708 5706 5705 5704 5703 5702 5702 5701 5700 5698 5696 5695 5695 5696 5695 5694 5693 5692 5691 5689 5687 5686 5685 5683 5682 5682 5682 5682 5682 5684 5685 5687 5688 5690 5691 5692 5693 5695 5697 5698 5699 5700 5702 5704 5706 5707 5709 5711 5712 5714 5717 5719 5719 5719 5720 5722 5723 5723 5724 5725 5726 5726 5727 5728 5729 5731 5732 5732 5733 5734 5734 5735 5736 5737 5738 5739 5740 5741 5742
5711 5710 5708 5707 5705 5703 5702 5700 5699 5698 5697 5696 5695 5695 5694 5693 5691 5690 5689 5689 5690 5689 5688 5687 5686 5685 5683 5682 5681 5679 5678 5678 5677 5677 5678 5679 5681 5682 5683 5685 5686 5686 5688 5690 5692 5694 5695 5696 5697 5699 5701 5702 5704 5707 5709 5710 5711 5712 5713 5715 5716 5717 5718 5719 5720 5722 5723 5724 5724 5725 5725 5726 5727 5728 5729 5730 5730 5731 5732 5733 5734 5735 5736 5736 5737
5706 5704 5702 5700 5699 5697 5696 5694 5693 5691 5690 5689 5689 5688 5687 5687 5686 5684 5683 5683 5683 5684 5683 5682 5681 5680 5679 5678 5677 5675 5674 5674 5673 5673 5674 5675 5676 5677 5679 5680 5681 5682 5683 5685 5687 5689 5690 5692 5694 5694 5696 5698 5700 5702 5704 5704 5704 5706 5709 5710 5712 5713 5714 5715 5717 5719 5720 5720 5720 5720 5721 5722 5723 5725 5726 5726 5726 5727 5728 5729 5729 5730 5731 5732 5733
5701 5699 5697 5695 5693 5691 5690 5688 5686 5685 5684 5682 5682 5681 5680 5680 5679 5678 5677 5677 5677 5677 5677 5677 5676 5675 5674 5673 5672 5671 5670 5669 5669 5669 5669 5670 5671 5672 5674 5676 5676 5677 5678 5679 5681 5684 5686 5688 5689 5690 5692 5694 5695 5696 5698 5700 5700 5701 5703 5705 5707 5709 5711 5712 5713 5714 5714 5715 5716 5716 5716 5718 5720 5721 5722 5722 5722 5724 5724 5724 5725 5726 5727 5728 5729
5695 5693 5691 5689 5688 5686 5684 5681 5680 5678 5677 5676 5675 5674 5673 5672 5672 5671 5671 5670 5670 5670 5671 5671 5671 5670 5669 5668 5667 5667 5666 5665 5665 5665 5665 5665 5666 5667 5668 5670 5671 5672 5674 5675 5677 5679 5681 5682 5683 5685 5687 5689 5690 5692 5694 5695 5695 5696 5699 5701 5703 5705 5707 5708 5709 5709 5709 5710 5712 5712 5712 5714 5716 5718 5719 5719 5719 5720 5720 5720 5721 5723 5724 5724 5725
5689 5687 5685 5683 5682 5680 5678 5675 5673 5672 5670 5669 5668 5666 5665 5664 5664 5664 5664 5663 5663 5663 5664 5664 5664 5664 5664 5663 5662 5662 5661 5660 5660 5660 5660 5660 5661 5661 5662 5664 5665 5667 5669 5670 5672 5674 5676 5677 5679 5681 5683 5684 5686 5688 5689 5690 5692 5693 5695 5697 5699 5701 5703 5704 5704 5703 5703 5706 5708 5708 5709 5711 5713 5714 5715 5715 5715 5716 5716 5717 5718 5719 5719 5720 5721
5684 5681 5679 5677 5675 5673 5671 5668 5666 5664 5663 5662 5660 5659 5658 5657 5656 5656 5656 5656 5656 5656 5656 5657 5657 5658 5658 5657 5657 5657 5656 5656 5655 5655 5655 5655 5656 5656 5657 5659 5660 5662 5663 5665 5667 5669 5671 5673 5675 5677 5678 5679 5681 5683 5685 5687 5690 5691 5692 5693 5695 5696 5697 5698 5698 5698 5699 5702 5703 5705 5706 5708 5709 5710 5710 5711 5712 5712 5712 5713 5714 5715 5715 5716 5716
5678 5675 5672 5670 5668 5665 5663 5661 5658 5656 5655 5653 5652 5651 5650 5649 5649 5648 5647 5647 5648 5648 5648 5649 5650 5651 5651 5651 5651 5651 5651 5650 5650 5650 5650 5651 5651 5652 5653 5654 5656 5657 5658 5660 5662 5664 5666 5668 5670 5672 5673 5674 5677 5678 5680 5683 5686 5686 5687 5689 5690 5690 5691 5693 5694 5694 5695 5697 5699 5701 5702 5704 5705 5706 5706 5707 5707 5708 5708 5709 5710 5710 5711 5711 5711
5671 5668 5666 5663 5660 5658 5655 5653 5650 5648 5646 5644 5643 5641 5640 5640 5640 5639 5639 5638 5639 5639 5640 5641 5642 5643 5644 5645 5645 5645 5645 5645 5645 5645 5646 5646 5646 5647 5648 5649 5651 5653 5654 5655 5657 5659 5661 5663 5665 5666 5668 5669 5671 5673 5675 5679 5680 5681 5682 5683 5684 5685 5688 5690 5691 5692 5692 5693 5694 5696 5697 5698 5700 5701 5701 5702 5703 5703 5704 5704 5705 5706 5706 5706 5706
5665 5662 5659 5656 5653 5651 5648 5645 5642 5639 5636 5635 5633 5631 5630 5629 5629 5629 5629 5629 5629 5630 5631 5632 5633 5635 5636 5638 5638 5638 5638 5639 5639 5639 5640 5641 5641 5642 5643 5644 5646 5647 5649 5651 5653 5654 5656 5658 5660 5661 5663 5664 5666 5668 5671 5673 5675 5675 5676 5678 5680 5681 5683 5685 5686 5688 5688 5689 5690 5691 5691 5693 5694 5696 5696 5697 5698 5699 5699 5700 5700 5700 5700 5700 5701
5659 5655 5652 5648 5645 5643 5640 5638 5634 5630 5627 5625 5623 5622 5620 5618 5618 5618 5619 5619 5619 5619 5620 5622 5624 5626 5628 5629 5631 5632 5632 5632 5633 5634 5634 5635 5635 5636 5638 5639 5640 5642 5644 5646 5648 5649 5650 5652 5654 5656 5657 5658 5660 5664 5666 5667 5668 5669 5671 5673 5675 5676 5678 5680 5681 5682 5684 5685 5686 5686 5687 5688 5689 5690 5691 5692 5693 5694 5695 5695 5695 5694 5694 5694 5695